Погода в Называевске

Погода в Называевске : погода сейчас, прогноз погоды и архив. Всё, что Вы хотите узнать о погоде в Называевске!

Хотите узнать прогноз погоды в Называевске? Тогда Вам сюда: Погода в Называевске

Поиск расширенной информации на нашем сайте:

Другие новости

Новости СМИ2

Главная страница сайта

Новости сайта

02.10.2013

Напоминаем, что на нашем новом сайте вы можете получить высокодетализированные прогнозы погоды по пунктам России, СНГ и мира (включающие важные для авиации метеовеличины, такие как направление и скорость ветра, видимость, явления погоды, количество и форма облачности, нижняя и верхняя граница облачности), а также ознакомиться с разнообразными материалами по авиационной метеорологии и подборкой полезных ссылок на эту тему.

Сайт Метеоцентр.Азия посвящён разработке технологий оптимизации авиаметеорологического обслуживания, включая проектирование и перспективное создание нескольких автоматизированных авиаметеорологических систем:
- система выпуска высокодетальных прогностических карт явлений погоды для нижнего воздушного пространства по России и ближнему зарубежью;
- система верификации прогнозов TAF (выпускаемых синоптиками официальных АМСГ РФ и ближнего зарубежья) и AUTOTAF (выпускаемых сайтом Метеоцентр.Азия) - выявление ошибок, онлайн-сопоставление с фактической погодой METAR, автоматическое внесение коррективов в прогнозы при резком отклонении фактической погоды от прогноза, подсчёт оправдываемости прогнозов по элементам и в целом;
- система обработки, анализа и отображения авиаметеорологической информации для применения провайдерами метеорологической информации.

Рекомендуем: 20% скидка термостат лабораторный . Биотехнологии.

Погода в Называевске - сегодня

Время (UTC), дата Ветер
(°,м/с) 
Видим.   Явления Облачность Т
(°С)
Тd
(°С)
f(%) Тe
(°С)
Pmin
(гПа)
dP
(гПа)
Po
(мм)
O2
(г/м3)
Тmin Tmax R s Состояние
почвы
06 26.05.17 240 (ЮЗ) 40000 м    ясно 
+13.8 -5.8 25 +14  1024.8  0.4  757  291           
09 26.05.17 230 (ЮЗ) 40000 м    ясно 
+16.4 -4.2 24 +16  1023.9  -0.7  757  288           
12 26.05.17 230 (ЮЗ) 40000 м    3/0 верхняя 
[Ci sp]
+17.8 -2.9 24 +19  1022.6  -1.3  756  286           
15 26.05.17 180 (Ю) 40000 м    3/0 верхняя 
[Ci fib]
+16.1 -1.6 30 +17  1021.2  -1.4  755  287    +17.9       
18 26.05.17 170 (Ю) 20000 м    1/0 средняя 
[Ac lent]
+11.1 +0.1 47 +11  1020.6  -0.9  754  292           
21 26.05.17 180 (Ю) 20000 м    1/0 средняя 
[Ac lent]
+10.3 +1.1 53 +10  1019.4  -1.2  753  292           
00 27.05.17 180 (Ю) 40000 м    ясно 
+10.5 +1.4 53 +10  1018.5  -0.9  752  292           
03 27.05.17 190 (Ю) 40000 м    ясно 
+16.6 +2.3 38 +16  1017.2  -0.9  752  285  +9.9         
06 27.05.17 170 (Ю) 40000 м    1/0 верхняя 
[Ci sp]
+21.7 +0.9 25 +22  1015.3  -1.7  751  280           
09 27.05.17 170 (Ю) 5{11}  40000 м    9/0 верхняя 
[Ci sp]
+22.8 -0.2 22 +23  1013  -2.2  749  278           
12 27.05.17 140 (ЮВ) 4{11}  40000 м    9/3 600 м кучево-дожд., средняя, верхняя 
[Cb cap|Ac cuf|Cs]
+22.4 -1.4 20 +22  1010.3  -2.7  747  278           
15 27.05.17 110 (В) 40000 м    9/4 600 м кучево-дожд., средняя, верхняя 
[Cb cap|Ac cuf|Ci sp]
+19.5 +3.2 34 +20  1006.7  -3.6  744  279    +23.6       
18 27.05.17 120 (ЮВ) 20000 м    8/5 600 м кучево-дожд., средняя, верхняя 
[Cb cap|Ac cuf|Ci fib]
+16.6 +4.9 46 +17  1004.2  -2.6  742  281           
21 27.05.17 110 (В) 20000 м    6/3 600 м кучево-дожд., средняя, верхняя 
[Cb cap|Ac cast|Ci fib]
+13 +4.2 55 +13  1001.4  -3  740  284           
00 28.05.17 140 (ЮВ) 40000 м    9/5 600 м кучево-дожд., средняя 
[Cb cap|Ac As]
+16 +3.3 43 +16  998.7  -2.5  738  280           
03 28.05.17 200 (Ю) 40000 м  {ливн. осадки}  3/1 600 м кучево-дожд., средняя 
[Cb cap|Ac trans]
+17.3 +10.1 63 +20  997.8  -0.8  737  278  +12.5    0.5     
06 28.05.17 180 (Ю) 40000 м  {ливн. осадки}  8/4 600 м средняя 
[Cu med, cong|Ac lent]
+20.2 +10.9 55 +23  996.1  -1.5  736  274           
09 28.05.17 220 (ЮЗ) 40000 м    8/8 600 м кучево-дожд. 
[Cb cap]
+22.9 +10.8 46 +26  994.3  -1.6  735  271           
15 28.05.17 250 (З) 4{10}  40000 м  в посл. час ливневой дождь{гроза}  9/3 600 м кучево-дожд., средняя 
[Cb cap|Ac cuf]
+16.2 +13.4 83 +22  997.6  0.8  737  278    +23.4     
18 28.05.17 220 (ЮЗ) 20000 м  {гроза, ливн. осадки}  3/1 600 м кучево-дожд., верхняя 
[Cb calv|Ci sp]
+14.2 +12.2 88 +20  998.8  738  280           
21 28.05.17 250 (З) 20000 м    ясно 
+12.9 +10.9 88 +16  1000.1  1.3  739  282           
00 29.05.17 300 (СЗ) 11000 м    9/9 500 м кучево-дожд. 
[Cb cap]
+13.4 +11.4 88 +17  1001.5  1.4  740  282           
03 29.05.17 350 (С) 25000 м    9/9 500 м кучево-дожд. 
[Cb cap]
+13.1 +10.3 83 +15  1002.1  0.5  740  283  +12.4         
15 29.05.17 030 (СВ) 40000 м  {ливн. осадки}  10/10 360 м кучево-дожд. 
[Cb cap]
+11.5 +10.2 92 +12  997.7  -1.6  737  283    +13.1     
03 30.05.17 340 (С) 9-13{15}  40000 м  {дождь}  10/10 480 м 
[Frnb|Ns]
+4.5 +2.2 85 +1  1001  1.5  739  293  +4.2       
Время (UTC), дата Ветер
(°,м/с) 
Видим.   Явления Облачность Т
(°С)
Тd
(°С)
f(%) Тe
(°С)
Pmin
(гПа)
dP
(гПа)
Po
(мм)
O2
(г/м3)
Тmin Tmax R s Состояние
почвы

Для получения пояснительной информации подведите курсор к названию столбца.

ПОГОДА в Называевске - архив

Всё, что Вы хотите узнать о погоде в Называевске - удобно и подробно!

Выберите нужную дату (начиная с 1 января 2015* года) и нажмите кнопку "Найти".
Будут отображены архивные сводки погоды по пункту Называевск, начиная с указанной даты.


Отображать данные в формате CSV (для использования в таблицах Excel)


Внимание! Наш архив погоды предназначен исключительно для личного некоммерческого использования в познавательных целях. Если Вам необходимы официальные справки о состоянии погоды (для производственных, юридических, коммерческих и т.п. целей), обращайтесь в органы Росгидромета.

*Примечание: данная дата относится к архиву по метеостанциям СССР (Россия, СНГ, Балтия).
Архив по метеостанциям Зарубежной Европы и Азии (кроме Китая) хранится 10 дней, по другим регионам земного шара (Китай, Африка, Америка, Австралия, Океания) - 1 день.

Называевск - район местоположения метеостанции


Название, широта, долгота, высота метеостанции:
Называевск 55.6°ш. 71.4°д. 126 м над ур. моря [Российская Федерация]

Дополнительная информация

В oтличие oт бoльшинства пoгoдных сайтoв мы публикуем пoдрoбную метеoинфoрмацию в детальнoм прoфессиoнальнoм фoрмате.

Характеристики температуры и влажнoсти вoздуха измеряются на высoте 2 м в тени вдали oт зданий и деревьев.
Скoрoсть ветра измеряется на высoте 10 м (на урoвне рoста челoвека скoрoсть ветра ниже в 1.5-2 раза). Если метеoстанция нахoдится в гoрoде или в лесу, тo скoрoсть ветра занижена на 2-4 м/с пo сравнению с oткрытым местoм. Скoрoсть ветра над акватoриями крупных рек и oзёр, а также на вершинах хoлмoв на 2-5 м/с выше, чем в oбычных услoвиях.
Атмoсфернoе давление в разных тoчках местнoсти мoжет значительнo oтличаться oт давления на метеoстанции, в зависимoсти oт услoвий рельефа (при пoдъёме на 10 м давление пoнижается примернo на 1 мм рт.ст.).